GW5388 Weather Reports


Display with metric or nautical units.
time (UTC)temp
F
wind
direction
speed
MPH
gust
MPH
rain 1hr
in
rain 24hr
in
rain mn
in
humidity
%
barometer
mb
20260510191509 69 0.0 0.0 0.00 0.25 0.00 54 1012.0
20260510191004 70 0.0 0.0 0.00 0.25 0.00 57 1012.1
20260510190504 71 0.0 0.0 0.00 0.26 0.00 56 1012.1
20260510190030 71 0.0 0.0 0.00 0.26 0.00 57 1012.1
20260510185505 69 0.0 0.0 0.00 0.27 0.00 59 1012.1
20260510185003 68 0.0 0.0 0.00 0.27 0.00 57 1012.2
20260510184515 68 0.0 0.0 0.00 0.27 0.00 55 1012.1
20260510184008 69 0.0 0.0 0.00 0.27 0.00 55 1012.2
20260510183518 68 0.0 0.0 0.00 0.27 0.00 54 1012.2
20260510183004 70 0.0 0.0 0.00 0.27 0.00 59 1012.3
20260510182507 68 0.0 0.0 0.00 0.27 0.00 57 1012.3
20260510182003 68 0.0 0.0 0.00 0.27 0.00 57 1012.2
20260510181505 69 0.0 0.0 0.00 0.27 0.00 60 1012.2
20260510181002 68 0.0 0.0 0.00 0.27 0.00 59 1012.1
20260510180506 68 0.0 0.0 0.00 0.27 0.00 59 1012.2
20260510180013 68 0.0 0.0 0.00 0.27 0.00 55 1012.1
20260510175503 69 0.0 0.0 0.00 0.27 0.00 59 1012.2
20260510175003 69 0.0 0.0 0.00 0.27 0.00 57 1012.2
20260510174516 69 0.0 0.0 0.00 0.27 0.00 58 1012.2
20260510174005 68 0.0 0.0 0.00 0.27 0.00 64 1012.2
20260510173506 67 0.0 0.0 0.00 0.27 0.00 61 1012.0
20260510173025 67 0.0 0.0 0.00 0.27 0.00 61 1012.0
20260510172508 67 0.0 0.0 0.00 0.27 0.00 62 1012.2
20260510172003 67 0.0 0.0 0.00 0.27 0.00 58 1012.1
20260510171526 67 0.0 0.0 0.00 0.27 0.00 63 1012.3
20260510171003 68 0.0 0.0 0.00 0.27 0.00 60 1012.3
20260510170505 68 0.0 0.0 0.00 0.27 0.00 60 1012.4
20260510170010 68 0.0 0.0 0.00 0.27 0.00 66 1012.4
20260510165505 67 0.0 0.0 0.00 0.27 0.00 65 1012.3
20260510165004 66 0.0 0.0 0.00 0.27 0.00 69 1012.3
20260510164518 65 0.0 0.0 0.00 0.27 0.00 70 1012.3
20260510164008 65 0.0 0.0 0.00 0.27 0.00 64 1012.4
20260510163504 66 0.0 0.0 0.00 0.28 0.00 66 1012.5
20260510163023 65 0.0 0.0 0.00 0.28 0.00 65 1012.5
20260510162510 65 0.0 0.0 0.00 0.28 0.00 63 1012.5
20260510162009 65 0.0 0.0 0.00 0.28 0.00 63 1012.6
20260510161527 65 0.0 0.0 0.00 0.28 0.00 62 1012.6
20260510161004 66 0.0 0.0 0.00 0.28 0.00 65 1012.6
20260510160504 66 0.0 0.0 0.00 0.28 0.00 63 1012.5
20260510160008 65 0.0 0.0 0.00 0.28 0.00 65 1012.5
20260510155503 65 0.0 0.0 0.00 0.28 0.00 66 1012.7
20260510155003 66 0.0 0.0 0.00 0.28 0.00 71 1012.8
20260510154514 65 0.0 0.0 0.00 0.28 0.00 70 1012.8
20260510154004 65 0.0 0.0 0.00 0.28 0.00 68 1012.8
20260510153504 64 0.0 0.0 0.00 0.28 0.00 69 1012.8
20260510153017 63 0.0 0.0 0.00 0.28 0.00 72 1012.9
20260510152508 62 0.0 0.0 0.00 0.28 0.00 73 1013.0
20260510152008 63 0.0 0.0 0.00 0.28 0.00 71 1013.0
20260510151524 63 0.0 0.0 0.00 0.28 0.00 72 1013.0
20260510151005 63 0.0 0.0 0.00 0.28 0.00 73 1012.9
20260510150510 63 0.0 0.0 0.00 0.28 0.00 73 1012.9
20260510150008 63 0.0 0.0 0.00 0.28 0.00 73 1012.9
20260510145504 63 0.0 0.0 0.00 0.28 0.00 72 1012.8
20260510145003 63 0.0 0.0 0.00 0.28 0.00 77 1012.8
20260510144511 62 0.0 0.0 0.00 0.28 0.00 74 1012.7
20260510144008 62 0.0 0.0 0.00 0.28 0.00 75 1012.7
20260510143506 62 0.0 0.0 0.00 0.28 0.00 76 1012.6
20260510143030 61 0.0 0.0 0.00 0.28 0.00 76 1012.7
20260510142503 61 0.0 0.0 0.00 0.28 0.00 77 1012.6
20260510142007 60 0.0 0.0 0.00 0.28 0.00 79 1012.7
20260510141523 60 0.0 0.0 0.00 0.28 0.00 77 1012.7
20260510141008 59 0.0 0.0 0.00 0.28 0.00 79 1012.7
20260510140507 59 0.0 0.0 0.00 0.28 0.00 82 1012.7
20260510140022 57 0.0 0.0 0.00 0.28 0.00 81 1012.7
20260510135508 57 0.0 0.0 0.00 0.28 0.00 83 1012.7
20260510135006 57 0.0 0.0 0.00 0.28 0.00 83 1012.7
20260510134510 56 0.0 0.0 0.00 0.28 0.00 84 1012.6
20260510134002 56 0.0 0.0 0.00 0.28 0.00 85 1012.5
20260510133510 55 0.0 0.0 0.00 0.28 0.00 85 1012.5
20260510133014 55 0.0 0.0 0.00 0.28 0.00 85 1012.5
20260510132509 54 0.0 0.0 0.00 0.28 0.00 86 1012.5
20260510132007 54 0.0 0.0 0.00 0.29 0.00 86 1012.6
20260510131524 54 0.0 0.0 0.00 0.29 0.00 88 1012.6
20260510131009 53 0.0 0.0 0.00 0.29 0.00 86 1012.5
20260510130507 53 0.0 0.0 0.00 0.29 0.00 86 1012.5
20260510130023 53 0.0 0.0 0.00 0.29 0.00 87 1012.7
20260510125507 53 0.0 0.0 0.00 0.29 0.00 87 1012.5
20260510125010 53 0.0 0.0 0.00 0.29 0.00 86 1012.4
20260510124532 53 0.0 0.0 0.00 0.29 0.00 87 1012.3
20260510124011 53 0.0 0.0 0.00 0.29 0.00 87 1012.3
20260510123502 53 0.0 0.0 0.00 0.29 0.00 87 1012.2
20260510123010 53 0.0 0.0 0.00 0.29 0.00 88 1012.2
20260510122503 52 0.0 0.0 0.00 0.29 0.00 87 1012.2
20260510122006 52 0.0 0.0 0.00 0.29 0.00 87 1012.2
20260510121519 52 0.0 0.0 0.00 0.29 0.00 88 1012.3
20260510121007 52 0.0 0.0 0.00 0.29 0.00 90 1012.3
20260510120508 51 0.0 0.0 0.00 0.29 0.00 90 1012.2
20260510120023 51 0.0 0.0 0.00 0.29 0.00 91 1012.2
20260510115506 51 0.0 0.0 0.00 0.29 0.00 91 1012.1
20260510115013 51 0.0 0.0 0.00 0.29 0.00 91 1012.2
20260510114526 50 0.0 0.0 0.00 0.29 0.00 91 1012.2
20260510114010 50 0.0 0.0 0.00 0.29 0.00 91 1012.1
20260510113507 50 0.0 0.0 0.00 0.29 0.00 91 1012.0
20260510113026 50 0.0 0.0 0.00 0.29 0.00 91 1012.0
20260510112505 50 0.0 0.0 0.00 0.29 0.00 91 1011.8
20260510112006 50 0.0 0.0 0.00 0.29 0.00 91 1011.8
20260510111516 50 0.0 0.0 0.00 0.29 0.00 91 1011.7
20260510111004 50 0.0 0.0 0.00 0.29 0.00 91 1011.8
20260510110508 50 0.0 0.0 0.00 0.29 0.00 91 1011.9
20260510110026 50 0.0 0.0 0.00 0.29 0.00 91 1011.9
20260510105505 50 0.0 0.0 0.00 0.29 0.00 91 1011.7
20260510105008 50 0.0 0.0 0.00 0.29 0.00 91 1011.6
20260510104523 50 0.0 0.0 0.00 0.29 0.00 91 1011.7
20260510104008 50 0.0 0.0 0.00 0.29 0.00 91 1011.6
20260510103512 50 0.0 0.0 0.00 0.29 0.00 91 1011.6
20260510103029 50 0.0 0.0 0.00 0.29 0.00 91 1011.6
20260510102509 50 0.0 0.0 0.00 0.29 0.00 91 1011.5
20260510102010 50 0.0 0.0 0.00 0.29 0.00 91 1011.4
20260510101526 50 0.0 0.0 0.00 0.29 0.00 91 1011.4
20260510101007 50 0.0 0.0 0.00 0.29 0.00 91 1011.4
20260510100506 50 0.0 0.0 0.00 0.29 0.00 90 1011.5
20260510100030 50 0.0 0.0 0.00 0.30 0.00 90 1011.3
20260510095507 50 0.0 0.0 0.00 0.30 0.00 90 1011.1
20260510095007 50 0.0 0.0 0.00 0.30 0.00 90 1011.0
20260510094531 50 0.0 0.0 0.00 0.30 0.00 90 1011.0
20260510094008 50 0.0 0.0 0.00 0.30 0.00 90 1011.0
20260510093507 50 0.0 0.0 0.00 0.30 0.00 90 1011.0
20260510093024 50 0.0 0.0 0.00 0.30 0.00 90 1011.4
20260510092511 50 0.0 0.0 0.00 0.30 0.00 90 1011.3
20260510092014 50 0.0 0.0 0.00 0.30 0.00 90 1011.4
20260510091526 50 0.0 0.0 0.00 0.30 0.00 90 1011.3
20260510091006 50 0.0 0.0 0.00 0.30 0.00 90 1011.3
20260510090507 50 0.0 0.0 0.00 0.30 0.00 90 1011.4
20260510090023 50 0.0 0.0 0.00 0.31 0.00 90 1011.2
20260510085507 50 0.0 0.0 0.00 0.31 0.00 90 1011.2
20260510085007 50 0.0 0.0 0.00 0.31 0.00 90 1011.3
20260510084523 50 0.0 0.0 0.00 0.31 0.00 90 1011.4
20260510084007 50 0.0 0.0 0.00 0.31 0.00 90 1011.6
20260510083508 49 0.0 0.0 0.00 0.31 0.00 90 1011.6
20260510083029 49 0.0 0.0 0.00 0.32 0.00 90 1011.6
20260510082508 49 0.0 0.0 0.00 0.32 0.00 90 1011.6
20260510082004 50 0.0 0.0 0.00 0.33 0.00 90 1011.5
20260510081508 49 0.0 0.0 0.00 0.33 0.00 90 1011.4
20260510081004 50 0.0 0.0 0.00 0.34 0.00 90 1011.4
20260510080504 50 0.0 0.0 0.00 0.34 0.00 90 1011.5
20260510080024 50 0.0 0.0 0.00 0.34 0.00 90 1011.5
20260510075506 50 0.0 0.0 0.00 0.34 0.00 90 1011.6
20260510075004 50 0.0 0.0 0.00 0.34 0.00 90 1011.6
20260510074519 50 0.0 0.0 0.00 0.34 0.00 90 1011.6
20260510074006 50 0.0 0.0 0.00 0.34 0.00 90 1011.6
20260510073507 50 0.0 0.0 0.00 0.34 0.00 90 1011.6
20260510073004 50 0.0 0.0 0.00 0.34 0.00 90 1011.4
20260510072507 50 0.0 0.0 0.00 0.34 0.00 90 1011.3
20260510072004 50 0.0 0.0 0.00 0.34 0.00 90 1011.3
20260510071510 50 0.0 0.0 0.00 0.34 0.00 90 1011.3
20260510071004 50 0.0 0.0 0.00 0.34 0.00 90 1011.1
20260510070502 50 0.0 0.0 0.00 0.34 0.00 90 1011.3
20260510070014 50 0.0 0.0 0.00 0.34 0.00 90 1011.3
20260510065504 50 0.0 0.0 0.00 0.34 0.00 90 1011.3
20260510065004 50 0.0 0.0 0.00 0.34 0.00 90 1011.5
20260510064520 50 0.0 0.0 0.00 0.34 0.00 90 1011.4
20260510064006 50 0.0 0.0 0.00 0.34 0.00 90 1011.4
20260510063506 50 0.0 0.0 0.00 0.34 0.00 90 1011.4
20260510063020 50 0.0 0.0 0.00 0.34 0.00 90 1011.4
20260510062508 50 0.0 0.0 0.00 0.34 0.00 90 1011.3
20260510062004 50 0.0 0.0 0.00 0.34 0.00 90 1011.3
20260510061505 50 0.0 0.0 0.00 0.34 0.00 90 1011.3
20260510061004 50 0.0 0.0 0.00 0.34 0.00 90 1011.3
20260510060504 50 0.0 0.0 0.00 0.34 0.00 90 1011.2
20260510060009 50 0.0 0.0 0.00 0.34 0.00 90 1011.0
20260510055504 50 0.0 0.0 0.00 0.34 0.00 90 1011.1
20260510055004 50 0.0 0.0 0.00 0.34 0.00 90 1011.0
20260510054516 50 0.0 0.0 0.00 0.34 0.00 90 1011.1
20260510054008 50 0.0 0.0 0.00 0.34 0.00 90 1011.1
20260510053507 50 0.0 0.0 0.00 0.34 0.00 90 1011.2
20260510053025 50 0.0 0.0 0.00 0.34 0.00 90 1011.2
20260510052506 50 0.0 0.0 0.00 0.34 0.00 90 1011.3
20260510052008 51 0.0 0.0 0.00 0.34 0.00 90 1011.2
20260510051522 51 0.0 0.0 0.00 0.34 0.00 90 1011.2
20260510051007 51 0.0 0.0 0.00 0.34 0.00 90 1011.2
20260510050503 51 0.0 0.0 0.00 0.34 0.00 90 1011.3
20260510050011 51 0.0 0.0 0.00 0.34 0.00 90 1011.3
20260510045506 51 0.0 0.0 0.00 0.34 0.00 90 1011.3
20260510045006 51 0.0 0.0 0.00 0.34 0.00 90 1011.3
20260510044526 51 0.0 0.0 0.00 0.34 0.00 90 1011.2
20260510044002 51 0.0 0.0 0.00 0.34 0.00 90 1011.3
20260510043506 51 0.0 0.0 0.00 0.34 0.00 90 1011.3
20260510043020 51 0.0 0.0 0.00 0.34 0.00 90 1011.3
20260510042503 51 0.0 0.0 0.00 0.34 0.00 90 1011.3
20260510042006 51 0.0 0.0 0.00 0.34 0.00 90 1011.3
20260510041520 51 0.0 0.0 0.00 0.34 0.00 90 1011.1
20260510041006 51 0.0 0.0 0.00 0.34 0.00 90 1011.1
20260510040507 51 0.0 0.0 0.00 0.34 0.00 90 1011.2
20260510040026 51 0.0 0.0 0.00 0.34 0.00 90 1011.0
20260510035502 51 0.0 0.0 0.00 0.34 0.34 90 1011.0
20260510035004 51 0.0 0.0 0.00 0.34 0.34 90 1011.1
20260510034512 51 0.0 0.0 0.00 0.34 0.34 90 1011.1
20260510034006 51 0.0 0.0 0.00 0.34 0.34 90 1011.3
20260510033503 51 0.0 0.0 0.00 0.34 0.34 90 1011.2
20260510033014 51 0.0 0.0 0.00 0.34 0.34 90 1011.3
20260510032508 51 0.0 0.0 0.00 0.34 0.34 1011.2
20260510032007 51 0.0 0.0 0.00 0.34 0.34 1011.3
20260510031521 51 0.0 0.0 0.00 0.34 0.34 90 1011.3
20260510031008 51 0.0 0.0 0.00 0.34 0.34 90 1011.3
20260510030506 51 0.0 0.0 0.00 0.34 0.34 90 1011.4
20260510030023 51 0.0 0.0 0.00 0.34 0.34 90 1011.3
20260510025506 51 0.0 0.0 0.00 0.34 0.34 90 1011.4
20260510025009 51 0.0 0.0 0.00 0.34 0.34 90 1011.3
20260510024527 51 0.0 0.0 0.00 0.34 0.34 90 1011.2
20260510024003 51 0.0 0.0 0.00 0.34 0.34 90 1011.2
20260510023506 51 0.0 0.0 0.00 0.34 0.34 90 1011.2
20260510023012 51 0.0 0.0 0.00 0.34 0.34 90 1011.1
20260510022510 51 0.0 0.0 0.00 0.34 0.34 90 1011.0
20260510022007 51 0.0 0.0 0.00 0.34 0.34 90 1011.1
20260510021520 51 0.0 0.0 0.00 0.34 0.34 90 1011.1
20260510021005 51 0.0 0.0 0.00 0.34 0.34 90 1011.2
20260510020509 51 0.0 0.0 0.00 0.34 0.34 90 1011.3
20260510020022 51 0.0 0.0 0.00 0.34 0.34 90 1011.3
20260510015507 51 0.0 0.0 0.00 0.34 0.34 1011.3
20260510015006 51 0.0 0.0 0.00 0.34 0.34 90 1011.3
20260510014523 51 0.0 0.0 0.00 0.34 0.34 90 1011.4
20260510014008 51 0.0 0.0 0.00 0.34 0.34 90 1011.5
20260510013509 51 0.0 0.0 0.00 0.34 0.34 90 1011.2
20260510013010 51 0.0 0.0 0.00 0.34 0.34 90 1011.2
20260510012503 51 0.0 0.0 0.00 0.34 0.34 90 1011.2
20260510012007 51 0.0 0.0 0.00 0.34 0.34 90 1011.2
20260510011532 51 0.0 0.0 0.00 0.34 0.34 90 1011.1
20260510011006 51 0.0 0.0 0.00 0.34 0.34 90 1011.0
20260510010506 51 0.0 0.0 0.00 0.34 0.34 90 1010.9
20260510010020 51 0.0 0.0 0.00 0.34 0.34 90 1010.8
20260510005507 51 0.0 0.0 0.00 0.34 0.34 1010.7
20260510005006 51 0.0 0.0 0.00 0.34 0.34 1010.7
20260510004504 51 0.0 0.0 0.00 0.34 0.34 90 1010.7
20260510004005 51 0.0 0.0 0.00 0.34 0.34 90 1010.7
20260510003503 51 0.0 0.0 0.00 0.34 0.34 90 1010.6
20260510003007 51 0.0 0.0 0.00 0.34 0.34 90 1010.5
20260510002502 51 0.0 0.0 0.00 0.34 0.34 90 1010.5
20260510002006 52 0.0 0.0 0.00 0.34 0.34 90 1010.4
20260510001510 52 0.0 0.0 0.00 0.34 0.34 90 1010.5
20260510001006 52 0.0 0.0 0.00 0.34 0.34 90 1010.3
20260510000503 52 0.0 0.0 0.00 0.34 0.34 90 1010.3
20260510000018 52 0.0 0.0 0.00 0.34 0.34 90 1010.4
20260509235503 52 0.0 0.0 0.00 0.34 0.34 90 1010.3
20260509235006 52 0.0 0.0 0.00 0.34 0.34 90 1010.4
20260509234527 52 0.0 0.0 0.00 0.34 0.34 90 1010.2
20260509234008 52 0.0 0.0 0.00 0.34 0.34 90 1010.3
20260509233507 52 0.0 0.0 0.00 0.34 0.34 90 1010.2
20260509233007 52 0.0 0.0 0.00 0.34 0.34 90 1010.1
20260509232503 52 0.0 0.0 0.00 0.34 0.34 90 1010.2
20260509232004 52 0.0 0.0 0.00 0.34 0.34 90 1010.2
20260509231512 52 0.0 0.0 0.00 0.34 0.34 89 1010.3
20260509231005 52 0.0 0.0 0.01 0.34 0.34 89 1010.4
20260509230506 52 0.0 0.0 0.01 0.34 0.34 89 1010.4
20260509230016 52 0.0 0.0 0.01 0.34 0.34 89 1010.6
20260509225504 52 0.0 0.0 0.03 0.34 0.34 89 1010.6
20260509225004 52 0.0 0.0 0.04 0.34 0.34 90 1010.6
20260509224521 52 0.0 0.0 0.05 0.34 0.34 90 1010.6
20260509224007 52 0.0 0.0 0.06 0.34 0.34 90 1010.6
20260509223506 52 0.0 0.0 0.06 0.34 0.34 90 1010.6
20260509223023 52 0.0 0.0 0.07 0.34 0.34 90 1010.7
20260509222509 52 0.0 0.0 0.07 0.34 0.34 90 1010.9
20260509222002 52 0.0 0.0 0.08 0.34 0.34 90 1011.0
20260509221508 52 0.0 0.0 0.08 0.34 0.34 90 1011.0
20260509221004 52 0.0 0.0 0.07 0.33 0.33 90 1011.0
20260509220503 52 0.0 0.0 0.08 0.33 0.33 90 1011.0
20260509220013 52 0.0 0.0 0.08 0.33 0.33 90 1010.9
20260509215506 52 0.0 0.0 0.06 0.31 0.31 90 1011.0
20260509215013 52 0.0 0.0 0.05 0.30 0.30 90 1011.2
20260509214526 52 0.0 0.0 0.04 0.29 0.29 90 1011.2
20260509214006 52 0.0 0.0 0.04 0.28 0.28 90 1011.3
20260509213507 52 0.0 0.0 0.04 0.28 0.28 90 1011.2
20260509213022 52 0.0 0.0 0.03 0.27 0.27 90 1011.2
20260509212507 52 0.0 0.0 0.04 0.27 0.27 90 1011.1
20260509212007 52 0.0 0.0 0.03 0.26 0.26 90 1011.0
20260509211524 52 0.0 0.0 0.04 0.26 0.26 90 1010.9
20260509211004 52 0.0 0.0 0.05 0.26 0.26 90 1010.9
20260509210504 52 0.0 0.0 0.05 0.25 0.25 90 1010.9
20260509210012 52 0.0 0.0 0.06 0.25 0.25 90 1010.9
20260509205504 52 0.0 0.0 0.07 0.25 0.25 90 1011.0
20260509205003 52 0.0 0.0 0.09 0.25 0.25 90 1011.0
20260509204523 52 0.0 0.0 0.10 0.25 0.25 90 1011.1
20260509204007 52 0.0 0.0 0.09 0.24 0.24 90 1011.2
20260509203508 52 0.0 0.0 0.10 0.24 0.24 89 1011.2
20260509203021 52 0.0 0.0 0.11 0.24 0.24 90 1011.3
20260509202506 53 0.0 0.0 0.12 0.23 0.23 90 1011.3
20260509202012 53 0.0 0.0 0.13 0.23 0.23 90 1011.4
20260509201529 53 0.0 0.0 0.13 0.22 0.22 90 1011.5
20260509201012 53 0.0 0.0 0.12 0.21 0.21 90 1011.5
20260509200509 53 0.0 0.0 0.12 0.20 0.20 89 1011.5
20260509200011 53 0.0 0.0 0.11 0.19 0.19 89 1011.4
20260509195506 53 0.0 0.0 0.11 0.18 0.18 89 1011.4
20260509195005 54 0.0 0.0 0.09 0.16 0.16 89 1011.3
20260509194517 54 0.0 0.0 0.08 0.15 0.15 89 1011.3
20260509194005 53 0.0 0.0 0.08 0.15 0.15 88 1011.5
20260509193505 53 0.0 0.0 0.07 0.14 0.14 88 1011.6
20260509193026 53 0.0 0.0 0.06 0.13 0.13 88 1011.6
20260509192506 53 0.0 0.0 0.04 0.11 0.11 88 1011.6
20260509192006 53 0.0 0.0 0.03 0.10 0.10 87 1011.5